Theta_e
285 285 285 285 285 285 285 285 284 284 284 284 284 284 284 284 284 284 284 284 284 284 284 283 283 284 284 284 284 284 284 285 285 285 285 286 286 286 287 287 287 287 288 288 288 288 288 288 288 289 289 289 289 289 289 290 290 290 290 290 290 291 291 291 291 291 291 291 291 291 291 291 291 291 291 291 291 291 292 292 292 292 292 293 293 293
285 285 285 285 285 285 284 284 284 284 284 284 284 284 284 284 284 284 284 284 284 283 283 283 283 283 283 284 283 283 283 284 284 285 285 285 286 286 286 287 287 287 287 287 287 288 288 288 288 288 289 289 289 289 289 289 289 290 290 290 290 290 290 290 290 290 290 290 290 290 290 290 290 290 290 291 291 291 291 291 291 292 292 292 292 293
285 285 285 285 285 285 284 284 284 284 284 284 284 284 284 284 284 284 284 284 283 283 283 283 283 283 283 283 283 283 283 283 284 284 285 285 286 286 286 286 286 287 287 287 287 287 288 288 288 288 288 289 289 289 289 289 289 289 290 290 290 290 290 290 290 289 289 289 289 289 289 290 290 290 290 290 290 290 291 291 291 291 292 292 292 292
285 285 285 285 285 285 284 284 284 284 284 284 284 284 284 284 284 284 284 283 283 283 283 283 283 283 283 283 283 282 282 283 283 284 284 285 285 285 286 286 286 286 286 287 287 287 287 288 288 288 288 288 289 289 289 289 289 289 289 289 289 289 289 289 289 289 289 289 289 289 289 289 289 289 289 290 290 290 290 291 291 291 291 291 292 292
286 286 285 285 285 285 284 284 284 284 284 284 284 284 284 284 284 284 283 283 283 283 283 283 283 283 283 282 282 282 282 282 283 284 284 284 284 285 285 285 285 286 286 286 287 287 287 287 288 288 288 288 288 289 289 289 289 289 289 289 288 288 288 288 288 288 288 288 288 289 289 289 289 289 289 289 289 290 290 290 290 290 291 291 291 291
286 286 285 285 285 285 285 284 284 284 284 284 284 284 284 284 283 283 283 283 283 283 283 283 283 282 282 282 282 282 282 282 283 283 283 283 284 284 284 285 285 285 286 286 286 287 287 287 287 288 288 288 288 288 288 288 288 288 288 288 288 288 288 288 288 288 288 288 288 288 288 288 289 289 289 289 289 289 289 289 290 290 290 290 290 291
286 285 285 285 285 285 285 284 284 284 284 284 284 284 284 283 283 283 283 283 283 283 283 282 282 282 281 281 281 281 281 282 282 282 282 283 283 283 284 284 285 285 285 286 286 286 287 287 287 287 287 287 287 287 287 287 287 287 287 287 287 287 287 287 287 287 287 288 288 288 288 288 288 288 288 288 288 289 289 289 289 289 290 290 290 290
285 285 285 285 285 285 285 284 284 284 284 284 284 283 283 283 283 283 283 283 282 282 282 282 281 281 281 281 281 281 281 282 282 282 282 282 283 283 283 284 284 285 285 286 286 286 286 287 287 287 287 287 287 286 286 286 286 286 286 286 287 287 287 287 287 287 287 287 287 287 287 288 288 288 288 288 288 288 288 289 289 289 290 290 290 291
285 285 285 285 285 285 285 284 284 284 284 284 284 283 283 283 283 283 283 282 282 282 281 281 281 281 281 281 281 281 281 281 282 282 282 283 283 283 283 284 284 285 285 286 286 286 286 286 286 286 286 286 286 286 286 286 286 286 286 286 286 286 286 286 286 286 287 287 287 287 287 287 287 288 288 288 288 288 288 289 289 289 290 290 290 291
285 285 285 285 285 285 285 284 284 284 284 284 284 284 283 283 283 282 282 282 281 281 281 281 281 281 281 281 281 281 281 282 282 282 283 283 283 283 284 284 284 285 285 285 285 285 285 285 285 285 285 285 285 285 285 285 285 285 285 285 285 285 285 285 286 286 286 286 286 287 287 287 287 287 288 288 288 288 289 289 289 289 290 290 290 290
286 286 285 285 285 285 284 284 284 284 284 284 284 283 283 283 282 282 281 281 281 281 281 281 281 281 281 281 281 281 282 282 282 282 283 283 283 283 284 284 284 284 284 284 284 284 284 284 284 284 284 284 284 284 284 284 284 285 285 285 285 285 285 285 285 285 286 286 286 287 287 287 287 288 288 288 288 288 289 289 289 289 289 289 289 290
286 286 286 285 285 285 284 284 284 284 284 284 284 283 283 282 282 282 281 281 281 281 281 281 281 281 281 281 281 282 282 282 282 282 283 283 283 283 283 283 283 283 283 283 283 283 283 283 283 283 283 283 283 283 283 284 284 284 284 284 284 284 284 285 285 285 286 286 286 287 287 287 288 288 288 288 288 288 288 288 289 289 289 289 289 290
286 286 285 285 285 284 284 284 284 284 284 284 283 283 282 282 282 281 281 281 281 281 281 281 281 281 281 282 282 282 282 282 283 283 283 283 283 283 283 283 283 283 283 282 282 282 282 282 282 282 282 282 282 282 282 283 283 283 283 283 284 284 285 285 285 286 286 286 287 287 287 287 287 288 288 288 288 288 288 288 288 289 289 289 289 290
286 285 285 285 285 284 284 284 284 284 284 283 283 282 282 282 281 281 281 281 281 281 281 281 281 281 282 282 282 283 283 283 283 283 283 283 283 283 283 283 282 282 282 282 282 282 282 282 281 281 282 282 282 282 282 282 282 282 283 283 284 284 285 285 286 286 286 286 287 287 287 287 287 287 288 288 288 288 288 288 289 289 289 289 289 289
286 285 285 285 285 285 285 285 284 284 283 283 282 282 282 281 281 281 281 281 281 281 281 281 282 282 282 282 283 283 283 283 283 283 283 283 283 283 282 282 282 282 282 281 281 281 281 281 281 281 281 281 281 281 281 282 282 283 283 284 284 285 285 285 286 286 286 286 286 287 287 287 287 287 288 288 288 288 288 288 289 289 289 289 289 289
285 285 285 285 285 285 285 284 284 283 283 282 282 282 282 281 281 281 281 281 281 281 282 282 282 282 283 283 283 283 283 283 283 283 283 282 282 282 282 282 281 281 281 281 281 281 281 281 281 281 281 281 281 281 282 282 282 283 284 284 284 285 285 285 285 286 286 286 286 287 287 287 287 287 287 288 288 288 288 288 288 288 289 289 289 289
286 286 285 285 285 285 284 284 283 283 282 282 282 282 282 282 281 281 281 281 281 282 282 282 282 283 283 283 283 283 283 283 283 282 282 282 282 282 281 281 281 281 281 281 281 281 281 281 281 281 281 281 281 281 282 282 283 283 284 284 284 285 285 285 285 286 286 286 286 287 287 287 287 287 287 288 288 288 288 288 288 288 289 289 289 289
286 286 286 285 285 284 284 283 283 282 282 282 282 282 282 282 282 281 281 282 282 282 282 282 282 283 283 283 283 283 283 283 282 282 282 281 281 281 281 281 281 281 281 281 281 281 281 281 281 281 281 281 281 282 282 283 283 283 284 284 284 284 285 285 285 286 286 286 286 286 287 287 287 287 287 287 287 288 288 288 288 288 288 289 289 289
286 285 285 285 284 284 283 283 283 283 283 283 283 282 282 282 282 282 282 282 282 282 282 283 283 283 283 283 283 283 282 282 282 281 281 281 281 281 281 281 281 280 280 280 280 280 280 280 280 281 281 281 281 282 282 282 283 283 283 284 284 284 285 285 285 286 286 286 286 286 287 287 287 287 287 287 287 287 287 288 288 288 288 288 288 288
285 285 285 284 284 283 283 283 283 283 283 283 283 282 282 282 282 282 282 283 283 283 283 283 283 283 283 283 283 282 282 281 281 281 281 281 281 281 281 280 280 280 280 280 280 280 280 280 280 280 281 281 281 281 282 282 283 283 284 284 284 285 285 285 285 285 286 286 286 286 286 286 287 287 287 287 287 287 287 287 288 288 288 288 288 288
285 284 284 284 284 283 283 283 283 283 283 283 283 282 282 282 283 283 283 283 283 283 283 283 283 283 282 282 282 281 281 281 281 281 280 280 280 280 280 280 280 280 280 280 280 280 280 280 280 280 280 281 281 281 282 282 283 283 284 284 284 284 285 285 285 285 285 286 286 286 286 286 286 286 287 287 287 287 287 287 287 287 288 288 288 288
284 284 284 284 284 284 284 284 284 283 283 283 283 283 283 283 283 283 283 283 283 283 283 283 282 282 281 281 281 281 281 281 280 280 280 280 280 280 280 280 280 280 280 280 280 280 280 280 280 280 280 281 281 281 282 282 283 283 284 284 284 284 284 285 285 285 285 285 286 286 286 286 286 286 286 287 287 287 287 287 287 287 287 288 288 288
284 284 284 284 284 284 284 284 283 283 283 283 283 283 283 283 283 283 283 283 283 282 282 281 281 281 281 281 281 281 281 280 280 280 280 280 280 280 280 280 280 280 280 280 280 280 280 280 280 280 280 281 281 282 282 282 283 283 283 284 284 284 284 284 285 285 285 285 285 285 285 286 286 286 286 286 287 287 287 287 287 287 287 287 287 287
285 284 284 284 284 283 283 283 284 284 284 284 284 284 284 283 283 283 283 282 282 281 281 281 281 281 281 281 281 280 280 280 280 279 279 279 280 280 280 280 280 280 280 280 280 280 280 280 280 280 281 281 281 282 282 282 283 283 283 283 284 284 284 284 284 284 285 285 285 285 285 285 286 286 286 286 286 286 286 286 286 286 286 286 287 287
284 283 283 283 283 283 284 284 284 284 284 284 284 283 283 283 282 282 281 281 281 281 281 281 281 280 280 280 280 280 280 280 279 279 279 279 280 280 280 280 280 280 280 280 280 280 280 280 280 281 281 281 281 281 282 282 282 283 283 283 283 283 284 284 284 284 284 285 285 285 285 285 285 285 285 285 286 286 286 286 286 286 286 286 287 287
283 283 283 283 283 284 284 284 284 283 283 283 282 282 282 282 281 281 281 281 281 281 281 280 280 280 280 280 280 279 279 279 279 279 279 279 280 280 280 280 280 280 280 280 280 280 280 281 281 281 281 281 281 281 281 282 282 282 282 283 283 283 283 284 284 284 284 284 284 284 284 285 285 285 285 285 285 286 286 286 286 286 286 286 286 287
282 283 283 283 283 283 282 282 282 282 282 282 282 282 281 281 281 281 281 280 280 280 280 280 280 279 279 279 279 279 279 279 279 279 279 279 279 279 280 280 280 280 280 280 280 280 281 281 281 281 281 281 281 281 281 281 281 282 282 282 283 283 283 283 283 283 283 283 284 284 284 284 284 285 285 285 285 285 286 286 286 286 286 286 286 286
282 282 282 281 281 281 281 281 281 280 280 280 281 281 281 281 281 280 280 280 280 280 279 279 279 279 279 279 279 279 279 279 279 279 279 279 279 279 280 280 280 280 280 280 280 280 280 281 281 281 281 281 281 281 281 281 281 281 282 282 282 282 282 282 282 283 283 283 283 283 284 284 284 284 285 285 285 285 285 285 286 286 286 286 286 286
282 281 281 281 280 280 280 280 280 280 279 279 280 280 280 280 280 280 280 279 279 279 279 279 279 279 279 279 279 279 279 279 280 280 280 279 279 279 280 280 280 280 280 280 280 280 280 281 281 281 281 281 281 281 281 281 281 281 281 281 281 281 281 282 282 282 282 283 283 283 283 284 284 284 284 285 285 285 285 285 285 285 285 285 285 285
281 281 280 280 280 280 279 279 279 279 279 279 279 279 279 279 279 279 279 279 278 278 279 279 279 279 279 279 279 279 279 280 280 280 280 279 279 279 280 280 280 280 280 280 280 280 280 281 281 281 281 281 281 281 281 281 280 280 280 280 281 281 281 281 281 282 282 282 283 283 283 283 284 284 284 284 284 284 284 285 285 285 285 285 285 285
280 280 280 280 279 279 279 279 279 279 279 279 279 279 279 278 278 278 278 278 279 279 279 279 279 279 279 279 279 279 279 280 280 280 279 279 279 279 279 279 280 280 280 280 280 280 280 281 281 281 281 281 280 280 280 280 280 280 280 280 280 281 281 281 281 282 282 282 282 282 283 283 283 283 283 283 284 284 284 284 284 284 285 285 285 285
279 279 279 279 279 279 278 278 279 279 279 279 279 278 278 278 278 278 279 279 279 279 279 279 279 279 279 279 279 279 279 279 279 279 279 279 279 279 279 279 279 280 280 280 280 280 280 280 280 280 280 280 280 280 280 280 280 280 281 281 281 281 281 281 281 281 281 281 282 282 282 282 282 283 283 283 283 283 283 284 284 284 284 284 284 284
279 278 278 278 278 278 278 278 279 279 279 279 279 278 279 279 279 279 279 279 279 279 279 279 279 279 279 279 279 279 279 279 279 279 279 279 279 279 279 279 279 279 279 280 279 279 280 280 280 280 280 280 280 280 280 280 280 281 280 280 280 280 280 281 281 281 281 281 281 281 281 281 282 282 282 282 282 283 283 283 283 284 284 284 284 284
278 278 278 278 278 278 278 278 279 279 279 279 279 279 279 279 279 279 279 279 279 279 279 279 279 279 279 279 279 279 279 279 279 279 279 279 279 279 279 279 279 279 279 279 279 279 279 279 280 280 280 280 280 280 280 280 280 280 280 280 280 280 280 280 280 280 281 281 281 281 281 281 281 281 281 282 282 282 282 283 283 283 284 284 284 284
278 278 278 278 278 278 278 278 279 279 279 279 279 279 278 278 278 278 278 278 278 278 278 278 278 279 279 279 279 279 279 279 279 279 279 279 279 279 279 279 279 279 279 279 279 279 279 280 280 280 280 280 280 280 280 280 280 280 280 280 280 280 280 280 280 280 280 280 281 281 281 281 281 281 281 281 281 282 282 282 283 283 284 284 284 285
278 278 278 278 278 278 278 278 278 279 278 278 278 278 278 278 278 278 278 278 278 278 278 278 278 278 278 278 279 279 279 279 279 279 279 279 279 279 279 279 279 279 279 279 279 279 279 279 280 280 280 280 280 280 280 281 281 281 281 280 280 280 280 280 280 280 280 280 281 281 281 281 281 281 281 281 281 282 282 283 283 284 284 284 284 285
277 277 278 278 278 278 278 278 278 278 278 278 278 278 278 278 278 278 278 278 278 278 278 278 278 278 278 278 278 279 279 279 279 279 279 279 279 279 279 279 279 279 279 279 279 279 279 279 279 279 280 280 280 280 280 281 281 281 280 280 280 280 280 280 280 280 281 281 281 281 281 281 281 281 281 282 282 282 282 283 283 283 283 283 284 284
277 277 278 278 278 278 278 278 278 278 278 278 278 278 278 278 278 278 278 278 278 278 278 278 278 278 278 278 278 278 278 278 278 278 278 278 278 278 278 278 279 279 279 279 279 279 279 279 279 279 280 280 280 280 280 280 280 280 280 280 281 280 281 281 281 281 281 281 281 281 281 281 282 282 282 282 282 282 282 282 282 282 282 283 283 283
277 278 278 278 278 278 278 278 278 278 278 278 278 278 278 278 278 278 278 278 278 278 278 278 278 278 278 278 278 278 278 278 278 278 278 279 279 279 279 279 279 279 279 279 279 279 279 279 279 279 280 280 280 280 280 280 280 280 280 280 281 281 281 281 281 281 281 281 281 281 281 282 282 282 282 282 282 282 282 282 282 282 282 282 282 283
278 278 278 278 278 278 278 278 278 278 278 278 278 278 278 278 278 278 278 278 278 278 278 278 278 278 278 278 278 279 279 279 279 279 279 279 279 279 279 279 279 279 279 279 279 279 279 279 279 279 280 280 280 280 280 280 280 280 281 281 281 281 281 281 281 281 281 281 281 281 281 281 281 282 282 282 282 282 282 282 282 282 282 282 282 283
278 278 278 278 278 278 278 278 278 278 278 278 278 278 278 278 278 278 278 278 278 278 278 278 278 279 279 279 279 279 279 279 279 279 279 279 279 279 279 279 279 279 279 279 279 279 279 279 279 279 279 279 280 280 280 280 280 280 281 281 281 281 281 281 281 281 281 281 281 281 281 282 282 282 282 282 282 282 282 282 282 282 282 283 283 283
277 277 277 277 277 277 278 278 278 278 278 278 278 278 278 278 278 278 278 278 278 278 278 279 279 279 279 279 279 279 279 279 279 279 279 279 279 279 279 279 279 279 279 279 279 279 279 279 279 279 279 279 280 280 280 280 280 280 281 281 281 281 281 281 281 281 281 281 282 282 282 282 282 282 282 282 282 282 282 282 282 283 283 283 283 283
277 277 277 277 277 278 278 278 278 278 278 278 278 278 278 278 278 278 278 278 278 279 279 279 279 279 279 279 279 279 279 279 279 279 279 279 279 279 279 279 279 279 279 279 279 279 279 279 279 279 279 280 280 280 280 280 280 281 281 281 281 281 281 281 282 282 282 282 282 282 282 282 282 282 282 282 282 282 282 282 283 283 283 283 283 283
277 277 277 277 278 278 278 278 278 278 278 278 278 278 278 278 278 278 278 278 278 279 279 279 279 279 279 279 279 279 279 280 280 280 279 279 279 279 280 280 280 279 279 279 279 279 279 280 280 280 280 280 280 280 280 280 281 281 281 281 281 281 281 281 282 282 282 282 282 282 282 282 282 282 282 282 282 282 282 282 282 283 283 283 283 283
277 277 277 278 278 278 278 278 278 278 278 278 278 278 278 278 278 278 278 278 278 279 279 279 279 279 279 279 279 279 280 280 280 280 280 280 280 280 280 280 280 280 280 280 280 280 280 280 280 280 280 280 280 280 280 281 281 281 281 281 281 281 281 281 282 282 282 282 282 282 282 282 282 282 282 282 282 282 282 282 283 283 283 283 283 283
277 277 277 277 277 277 277 277 277 277 277 278 278 278 278 278 278 278 278 278 278 278 279 279 279 279 279 279 279 279 279 279 280 280 280 280 280 280 280 280 280 280 280 280 280 280 280 280 280 280 280 280 281 281 281 281 281 281 281 281 281 281 282 282 282 282 282 282 282 282 282 282 282 282 282 282 282 283 283 283 283 283 283 283 283 283
277 277 277 277 277 277 277 277 277 277 277 278 278 278 278 278 278 278 278 278 278 278 279 279 279 278 279 279 279 279 279 279 279 280 280 280 280 280 280 280 280 280 280 281 281 281 281 280 280 280 281 281 281 281 281 281 281 281 281 281 281 282 282 282 282 282 282 282 282 282 282 282 282 282 282 283 283 283 283 283 283 284 284 284 284 284
277 277 277 277 277 277 277 277 277 277 277 278 278 278 278 278 278 278 278 278 278 278 278 278 278 278 279 279 279 279 279 279 279 280 280 280 280 280 281 281 281 281 281 281 281 281 281 281 281 281 281 281 281 281 281 281 281 281 281 281 282 282 282 282 282 282 282 282 282 282 282 282 283 283 283 283 283 283 284 284 284 284 284 284 284 284
277 277 277 277 277 277 277 277 277 277 277 278 278 278 278 278 278 278 278 278 278 278 278 278 278 278 278 279 279 279 279 279 279 280 280 280 280 281 281 281 281 281 281 281 281 281 281 281 281 281 281 281 281 281 281 281 281 282 282 282 282 282 282 282 282 282 283 283 283 283 283 283 283 283 283 283 283 284 284 284 284 284 285 285 285 285
276 276 277 277 277 277 277 277 277 277 277 277 278 278 278 278 278 278 278 278 278 278 278 278 278 278 278 278 279 279 279 279 280 280 280 280 281 281 281 281 281 281 281 281 281 281 282 282 282 282 282 282 282 282 282 282 282 282 282 282 282 282 283 283 283 283 283 283 283 283 283 283 283 283 284 284 284 284 284 284 285 285 285 285 285 285
276 276 277 277 277 277 277 277 277 277 277 277 278 278 278 278 278 278 278 278 278 278 278 278 278 278 278 279 279 279 279 280 280 280 280 280 281 281 281 281 281 281 281 281 281 282 282 282 282 282 282 283 283 283 283 283 283 283 283 283 283 283 283 283 283 283 284 284 284 284 284 284 284 284 284 284 284 285 285 285 285 285 285 285 285 285
Wind_Speed
15 16 18 19 19 19 20 20 20 21 23 23 24 24 24 24 24 23 23 24 24 24 24 23 22 22 22 23 23 24 23 23 23 24 24 24 24 23 23 23 23 23 23 23 23 23 23 23 23 23 23 23 23 23 23 23 23 23 23 23 24 24 24 25 25 25 25 26 26 27 27 27 27 27 27 27 28 28 28 28 28 28 28 28 28 28
15 16 17 17 17 18 19 19 19 20 22 23 24 24 24 24 24 24 24 24 24 24 23 23 23 23 23 24 25 25 24 24 24 24 24 24 24 23 24 24 24 24 24 24 24 24 23 23 23 23 23 23 23 23 23 23 24 24 24 24 24 25 25 25 26 26 26 27 27 27 27 27 27 27 27 27 27 28 28 28 28 28 28 28 28 29
15 15 16 16 16 17 18 19 19 19 21 22 23 24 24 24 24 24 24 24 24 23 23 23 23 24 24 25 26 26 25 24 24 24 24 24 24 24 24 24 24 24 24 24 23 23 23 23 23 23 23 23 23 23 24 24 24 24 25 25 25 26 26 26 27 27 27 27 28 28 28 27 27 27 26 27 27 27 27 27 28 28 28 28 28 28
14 15 16 16 16 16 17 18 19 19 20 22 22 23 22 23 23 24 24 24 24 24 23 23 23 24 25 25 26 27 26 24 24 24 24 24 24 25 25 25 25 24 24 23 23 23 22 22 23 23 23 23 24 24 24 25 25 25 26 26 26 27 27 27 28 28 28 28 28 27 27 27 26 26 26 26 26 27 27 27 27 27 27 27 28 28
14 15 15 16 16 16 16 17 18 20 21 21 21 21 21 22 22 23 24 24 23 23 23 23 23 24 25 26 27 27 26 24 24 24 24 24 25 25 25 24 24 24 23 23 23 22 22 23 23 23 24 24 24 24 25 25 26 26 27 27 27 28 28 28 28 28 28 27 27 27 26 26 26 25 25 26 26 26 26 26 27 27 27 27 27 27
15 15 15 15 15 16 17 18 18 19 20 20 20 20 20 21 22 23 23 23 22 22 22 23 23 24 25 26 26 26 25 24 24 24 24 24 24 24 24 23 23 23 23 23 23 22 23 23 23 24 24 24 25 25 26 26 27 27 28 28 28 28 28 28 27 27 27 26 26 26 25 25 25 25 25 25 26 26 26 26 26 27 27 27 27 28
15 15 15 15 16 16 17 17 18 18 19 20 20 21 21 21 21 21 21 21 21 21 22 23 24 24 25 25 26 26 25 25 25 25 24 24 23 23 22 22 22 22 23 22 23 23 23 23 24 24 25 25 26 27 27 28 28 28 28 28 28 28 27 27 26 26 26 25 25 25 25 25 25 25 26 26 26 26 26 26 26 27 27 27 27 28
16 16 16 16 17 17 17 17 17 17 19 20 21 22 22 21 20 20 20 19 20 20 22 23 24 24 25 25 25 25 25 26 26 25 24 23 23 22 22 22 22 22 22 22 22 23 23 24 24 25 26 27 28 28 29 29 29 29 28 28 27 27 26 26 25 25 25 24 25 25 25 25 25 25 26 26 26 26 26 27 27 27 27 27 28 28
17 17 17 16 17 17 18 18 18 18 19 20 21 21 21 21 20 20 19 19 19 20 21 23 24 24 25 25 25 25 25 24 24 24 23 23 22 22 22 22 22 22 22 22 22 23 24 25 25 27 28 28 29 29 29 29 29 28 27 27 26 26 25 25 25 25 24 24 25 25 25 25 25 25 26 26 26 26 27 27 27 27 27 28 28 28
16 16 17 17 16 16 17 18 19 19 19 19 19 19 19 19 20 20 20 20 20 21 21 22 23 24 24 24 24 24 24 24 23 22 22 21 21 21 22 22 22 22 22 22 23 24 25 26 27 28 29 29 30 30 29 29 28 27 27 26 26 25 25 25 25 25 25 25 25 25 25 25 26 26 26 26 27 27 27 28 28 28 28 28 28 29
15 16 16 16 15 15 16 18 19 19 18 18 18 17 16 16 17 19 21 22 23 22 22 21 22 22 24 24 24 24 24 24 24 23 22 21 21 21 21 21 21 22 23 23 24 25 27 28 28 29 29 29 29 29 28 28 27 27 26 26 26 26 25 25 25 25 25 25 25 26 26 26 26 26 27 27 27 28 28 28 28 28 28 29 29 29
15 15 15 15 15 16 17 18 18 18 17 16 16 16 16 16 17 18 20 22 23 23 23 22 22 21 22 23 24 24 24 23 23 23 23 22 21 20 20 21 22 23 25 26 27 28 29 29 28 28 29 29 29 28 28 27 27 27 27 26 26 26 26 26 26 26 26 26 26 26 27 27 27 27 27 27 28 28 28 28 29 29 29 29 29 29
14 13 13 15 16 16 17 17 17 16 15 14 15 15 17 18 19 19 20 21 22 23 23 23 23 22 22 22 22 22 23 23 22 22 21 20 20 20 21 22 24 25 27 28 29 29 30 29 28 27 27 28 28 28 28 28 28 27 27 27 26 26 26 26 26 26 27 27 27 27 27 27 27 27 27 28 28 28 28 28 28 29 29 29 29 29
13 13 14 15 16 17 16 16 15 14 14 15 16 17 19 20 20 21 21 21 22 22 22 23 22 22 21 20 20 20 21 21 21 21 20 20 20 21 22 24 25 26 27 28 29 29 29 28 27 27 28 29 29 29 29 29 28 27 27 27 27 27 27 27 27 27 28 28 28 28 28 28 28 27 28 28 28 28 28 28 28 29 29 29 29 30
13 14 15 16 16 16 15 14 14 15 16 17 18 19 20 20 20 20 20 21 22 22 22 22 22 21 20 18 18 18 19 19 19 20 21 21 22 22 23 25 26 27 27 28 28 29 28 27 28 29 30 30 30 30 30 29 28 28 28 28 28 28 28 28 28 28 28 28 28 28 28 28 28 28 28 28 28 28 28 28 29 29 29 29 30 30
13 14 15 15 15 15 14 14 15 16 18 19 19 19 19 20 20 20 20 21 22 21 20 20 20 20 19 18 17 17 18 18 19 20 23 24 24 23 23 25 26 27 27 27 27 28 28 27 28 29 29 30 30 29 29 28 28 28 29 29 29 29 29 29 29 29 29 28 28 28 28 28 28 28 28 28 28 29 29 29 29 29 29 29 30 30
12 13 14 14 14 14 14 15 17 18 19 19 18 18 18 19 20 21 21 21 21 19 18 17 15 14 15 18 18 16 17 19 21 22 24 26 26 24 23 24 25 26 27 27 27 27 27 27 28 28 29 30 29 29 28 29 29 29 30 30 30 30 30 29 29 29 29 29 29 29 29 29 29 29 29 29 29 29 29 29 29 29 30 30 30 30
12 13 14 14 14 15 16 17 17 18 18 18 18 19 20 20 21 21 21 20 19 18 17 15 14 12 12 16 18 18 19 21 23 24 25 26 26 25 23 23 24 25 26 26 27 27 27 27 28 28 29 29 29 29 29 30 30 30 30 30 30 30 30 30 30 30 30 30 30 30 30 29 29 29 29 29 29 29 30 30 30 30 30 30 30 30
14 14 14 14 15 17 18 18 18 17 17 17 18 20 21 22 22 21 20 19 18 17 16 15 15 15 16 18 20 22 23 23 24 25 25 25 25 25 23 23 23 24 25 26 26 26 26 27 28 28 29 29 29 29 30 30 30 30 30 30 30 31 31 31 31 31 31 31 30 30 30 30 30 30 30 30 30 30 30 30 30 30 30 30 30 30
16 16 15 16 18 18 18 18 17 16 16 18 20 21 22 23 22 21 19 18 17 17 16 16 16 17 18 21 23 25 25 24 24 24 24 25 25 25 23 22 23 24 25 26 26 26 26 27 28 29 29 29 29 29 29 30 30 30 31 31 31 31 31 31 31 31 31 31 31 31 31 31 30 30 30 30 30 30 30 30 30 30 30 30 30 31
17 17 17 18 18 18 17 17 16 17 19 22 23 24 23 22 21 19 17 16 15 15 15 14 16 18 20 23 26 27 26 24 22 22 22 23 24 24 23 22 22 23 25 26 26 26 26 26 27 28 28 28 28 29 29 30 30 31 31 31 31 32 32 32 32 32 32 31 31 31 31 31 31 30 30 30 30 30 30 30 30 31 30 31 31 31
18 18 18 18 17 17 18 19 19 21 23 25 25 23 22 20 19 17 16 15 14 15 15 17 20 22 24 26 27 27 26 24 22 21 20 20 22 24 22 21 21 22 24 25 25 25 25 26 26 27 28 28 28 28 29 30 30 31 31 32 32 32 32 32 32 32 32 31 31 31 31 31 31 31 31 30 30 30 30 30 31 31 30 31 31 31
18 18 17 17 17 17 19 21 22 24 24 24 24 23 21 19 18 17 16 16 17 19 21 23 25 25 25 25 26 26 25 23 21 20 19 17 20 23 22 21 21 22 23 24 25 25 25 25 26 27 27 27 28 28 29 30 30 31 31 32 32 32 32 32 32 32 32 31 31 31 31 31 31 31 31 31 31 31 31 31 31 31 31 31 31 31
16 17 17 17 18 19 20 21 21 21 21 21 20 20 19 19 18 19 19 21 22 23 23 24 24 24 23 23 23 23 23 21 20 18 17 17 19 22 22 21 21 22 24 24 24 24 25 26 26 27 27 27 27 28 29 29 30 31 31 31 32 32 32 32 31 31 31 31 31 31 31 31 31 31 31 31 31 31 31 31 31 31 31 31 31 31
17 18 19 19 19 20 20 19 19 19 20 20 20 20 20 20 21 23 24 24 23 22 21 21 20 20 21 21 21 22 22 20 18 17 16 16 19 22 23 21 21 22 24 25 25 25 25 26 26 26 26 27 27 28 28 29 29 30 30 31 31 31 31 31 31 31 31 31 32 32 32 32 32 32 32 31 31 31 31 31 31 31 31 31 31 31
18 18 18 18 19 19 19 19 19 20 21 21 22 23 23 24 24 24 24 23 21 19 18 17 17 18 20 20 20 21 21 19 18 16 16 17 19 22 23 22 21 22 24 25 25 25 24 25 26 26 27 27 27 28 28 28 28 29 29 30 30 31 31 31 31 32 32 32 32 32 32 32 32 32 32 31 31 31 31 30 30 30 30 30 31 30
18 18 18 17 17 18 18 19 20 21 22 22 23 23 22 22 21 20 19 19 18 16 15 14 14 16 18 18 19 20 21 19 18 17 17 18 19 21 22 22 21 22 24 25 26 25 25 25 26 26 27 27 28 28 27 27 27 27 28 29 29 30 31 32 32 32 32 33 32 32 32 32 31 31 31 31 31 31 30 30 30 30 30 30 29 29
17 17 17 17 18 18 19 21 22 23 24 24 23 22 20 19 17 16 16 16 16 15 14 14 13 13 15 16 19 21 22 21 20 19 18 17 17 18 21 21 21 22 23 25 26 26 25 25 25 25 26 26 26 26 26 25 25 26 27 28 30 31 32 32 32 32 32 32 32 32 31 31 31 31 31 31 31 30 30 30 30 29 29 28 27 27
17 18 19 20 21 22 23 24 25 25 24 22 20 17 16 15 14 14 15 15 15 15 15 15 15 14 15 18 20 22 23 21 19 17 16 14 15 18 21 21 21 22 22 24 26 27 25 23 22 22 23 24 24 25 25 26 26 27 28 29 30 31 31 31 31 31 31 31 31 31 31 31 31 31 31 30 30 30 30 29 29 29 28 27 26 26
18 20 22 23 24 25 26 26 25 23 21 18 16 14 13 13 14 15 16 16 15 15 15 16 16 16 17 18 18 18 17 18 16 13 13 13 15 18 21 21 21 21 20 19 17 17 20 23 22 20 20 22 24 25 26 27 27 28 28 28 29 30 30 30 30 30 31 31 31 31 31 31 31 30 30 30 30 30 29 29 29 28 26 26 26 25
22 24 25 27 27 27 26 24 22 19 17 15 13 13 13 13 14 15 16 16 15 15 16 16 16 17 16 14 10 7 9 16 17 14 14 15 17 19 21 21 21 21 19 15 8 5 11 18 22 22 21 23 25 26 27 27 27 27 27 28 28 29 29 29 29 29 30 30 30 30 30 30 30 30 30 30 29 29 29 29 28 27 26 26 25 25
25 26 27 27 27 25 23 20 18 16 15 14 14 14 14 14 14 14 15 15 15 16 16 17 17 17 17 16 12 10 13 20 21 19 17 16 18 20 21 20 21 21 20 18 13 9 8 10 19 26 25 25 26 27 27 27 26 26 26 27 28 29 29 28 28 28 29 29 30 30 30 30 30 30 30 30 29 29 29 29 28 27 26 25 25 24
25 26 26 25 24 22 19 17 16 15 15 15 15 15 14 14 14 14 14 15 15 16 17 17 18 18 19 19 19 20 22 24 23 21 18 17 17 19 20 20 21 22 22 21 20 18 15 15 20 26 28 27 27 27 27 27 26 26 26 27 28 29 29 28 28 28 28 29 29 29 30 30 30 30 30 30 29 29 29 28 28 26 25 25 24 24
25 24 24 23 21 19 17 16 15 15 15 15 14 14 14 14 15 15 15 16 16 17 18 18 19 19 19 19 21 23 25 25 23 20 18 17 18 19 21 21 21 21 21 21 21 21 21 22 23 24 25 27 28 27 27 27 26 26 26 27 27 28 29 28 28 27 28 28 29 29 30 30 31 30 30 29 29 28 28 27 27 26 25 25 25 25
22 22 21 20 18 17 16 15 15 15 14 15 15 15 15 15 16 16 17 17 18 18 19 20 20 20 20 20 21 22 25 26 24 20 18 18 19 20 21 22 21 21 20 20 20 19 20 22 24 23 23 25 27 28 28 27 26 26 26 26 27 27 28 28 28 28 28 28 29 29 29 30 30 30 30 29 29 28 27 27 26 26 26 26 26 26
20 19 18 17 16 16 15 15 14 15 15 15 16 16 16 17 17 18 18 19 19 19 20 21 22 22 23 23 23 24 26 27 26 23 21 21 21 21 22 23 23 22 20 21 21 20 19 21 23 24 23 22 23 26 28 28 26 26 26 26 27 27 28 28 28 27 28 28 28 28 29 29 29 29 29 29 28 27 27 27 27 27 27 27 27 27
18 17 16 15 15 14 14 15 15 16 16 16 17 17 18 18 19 19 20 20 21 21 22 22 23 24 25 26 26 28 29 29 28 27 26 26 25 24 24 25 25 24 22 21 22 22 21 20 22 23 23 21 21 23 27 28 28 27 27 27 27 27 28 28 27 27 27 27 27 27 27 27 27 27 28 28 27 28 28 28 28 28 28 28 27 28
15 14 14 14 14 14 15 15 16 16 17 17 18 19 19 20 21 21 21 22 22 23 23 23 24 25 25 26 28 30 31 32 33 33 32 30 29 28 26 26 26 25 24 23 22 22 21 19 16 14 17 21 23 25 27 28 28 28 28 28 28 28 28 27 27 26 25 26 26 26 27 26 26 27 27 28 28 28 28 29 29 29 27 27 27 27
13 13 13 13 13 14 15 15 16 17 18 18 19 20 20 21 21 21 22 22 22 22 23 23 24 26 27 28 29 29 30 31 32 32 32 32 30 29 28 27 27 27 26 25 24 22 21 20 17 15 15 19 23 27 29 28 28 28 28 29 29 29 28 27 26 25 25 25 26 27 27 27 27 27 27 27 27 27 27 28 28 28 27 26 26 26
13 13 13 13 13 14 15 16 17 18 19 20 21 21 21 21 21 21 21 21 21 22 22 23 24 25 26 26 27 27 28 29 30 31 31 31 30 29 28 27 27 27 27 26 25 24 23 23 23 23 23 22 23 26 28 29 29 28 28 27 27 28 29 28 27 27 27 26 26 26 27 27 27 26 26 26 26 26 26 27 27 27 26 25 25 25
13 13 14 14 15 16 16 17 18 19 20 20 21 20 20 20 20 21 21 22 22 22 22 22 23 24 25 26 26 26 26 26 27 27 28 28 29 29 29 29 29 28 27 26 25 25 24 24 25 25 25 25 25 27 28 30 30 30 28 26 26 29 31 31 29 27 26 26 26 26 26 26 26 26 26 25 26 26 27 27 27 27 27 26 26 24
13 14 15 16 17 17 18 19 19 19 19 19 19 19 19 19 20 21 21 22 22 22 21 22 23 24 26 26 26 25 24 24 24 25 26 26 26 27 28 29 29 28 28 27 26 26 25 24 25 26 26 26 25 25 27 30 31 30 28 27 28 29 30 30 29 27 25 25 25 25 25 25 25 25 25 26 26 27 28 28 28 28 27 27 26 26
14 15 16 17 18 18 18 19 18 18 18 18 19 19 19 19 20 20 21 21 22 22 22 22 22 23 25 26 26 26 25 24 24 24 24 24 24 25 26 27 28 28 27 26 25 26 26 25 25 25 26 26 26 25 27 29 30 31 29 28 27 25 23 26 28 28 25 25 26 26 25 25 25 26 26 26 26 27 28 28 28 28 28 28 28 28
15 16 17 17 18 18 18 18 18 18 18 19 19 19 20 20 20 20 20 21 22 22 22 22 22 22 23 24 26 27 27 26 25 23 23 23 23 24 24 25 26 27 27 26 25 25 26 26 27 27 27 26 26 26 27 29 30 30 30 29 27 25 23 26 29 29 28 28 27 27 27 26 27 27 26 27 27 27 27 27 28 29 30 30 30 30
16 16 17 17 17 17 17 18 18 18 19 19 19 20 20 20 20 20 20 21 22 22 22 21 20 20 21 23 24 26 27 27 27 25 24 23 22 22 22 23 24 25 26 27 26 26 25 25 27 28 28 26 26 26 27 28 28 29 30 30 29 28 28 30 29 28 28 28 28 29 29 28 27 27 26 27 27 27 27 27 27 28 30 30 31 30
15 16 16 17 17 17 18 18 18 18 19 19 19 20 20 20 20 20 20 20 21 21 21 20 19 18 19 21 23 24 25 27 28 27 26 25 24 23 23 23 23 24 25 26 27 27 27 27 28 28 28 27 27 28 29 28 28 28 29 29 28 28 28 29 29 28 27 27 28 29 29 28 26 25 25 26 27 28 27 27 27 27 29 29 29 30
15 15 16 17 17 17 18 18 18 18 19 19 20 20 20 20 20 20 20 19 19 20 20 20 19 18 19 21 22 22 23 25 27 29 29 28 27 26 24 23 23 23 24 25 26 27 28 29 29 28 27 26 26 28 30 29 28 28 28 28 28 28 28 28 29 29 28 28 28 29 29 27 25 25 26 26 27 27 27 27 27 27 28 29 29 29
15 16 16 17 17 18 18 18 18 18 19 20 20 20 20 20 19 19 19 19 19 19 20 19 19 19 20 21 22 22 22 24 26 27 28 28 28 27 26 25 24 23 24 24 25 26 27 29 29 29 28 26 25 26 29 30 29 28 28 28 27 27 27 29 30 30 29 29 29 30 29 27 25 25 26 26 26 26 27 27 26 27 27 28 28 28
15 16 17 17 17 17 18 18 18 19 19 20 21 21 21 20 19 18 18 19 19 19 19 19 19 20 20 21 22 23 23 24 25 26 27 27 27 27 26 26 26 26 25 25 25 25 26 27 27 28 28 28 27 27 29 30 30 29 28 28 27 27 27 29 30 30 29 29 30 30 30 28 27 26 25 25 25 26 28 28 27 27 27 28 28 28
16 16 16 17 17 17 18 18 19 19 19 20 21 21 22 21 20 19 19 19 19 18 18 19 19 20 20 22 23 23 23 24 24 25 26 27 26 26 26 26 26 26 26 25 25 24 24 23 24 24 24 25 27 28 29 30 30 30 28 28 27 27 27 28 29 29 29 28 28 29 28 28 27 26 24 24 24 26 27 27 27 27 27 27 27 28
16 16 16 16 17 17 18 18 19 19 20 20 21 21 21 21 21 20 20 19 19 19 19 19 19 20 20 22 23 23 23 23 24 25 26 27 26 25 25 25 25 24 23 22 21 20 19 17 18 20 23 23 23 24 27 27 28 27 27 27 27 27 26 27 28 29 28 28 27 27 26 26 25 24 23 22 22 23 24 25 26 27 27 27 27 27
Wind_Direction
290 294 297 299 302 303 304 307 309 312 313 316 318 319 319 318 317 317 316 315 315 316 316 316 317 316 315 314 313 310 307 306 305 304 304 303 303 303 302 302 301 300 300 299 299 298 297 297 296 295 294 294 294 293 293 292 291 290 289 288 288 288 288 288 289 289 290 289 288 288 287 286 285 284 283 282 281 280 279 279 279 279 279 279 279 278
293 295 298 301 302 303 303 306 309 311 313 314 316 317 317 316 315 314 314 314 314 315 315 316 315 315 313 312 311 309 307 305 305 304 304 303 303 303 302 302 301 300 300 299 299 298 297 297 296 295 295 294 294 294 293 293 292 291 290 289 288 288 288 289 289 289 289 288 287 286 286 285 284 283 282 282 281 280 279 278 277 277 277 277 277 277
296 298 299 301 302 302 302 306 309 311 312 313 313 314 314 314 313 312 312 313 314 314 315 314 313 312 311 310 309 309 307 306 305 304 304 303 303 303 302 302 301 300 300 299 299 298 297 297 296 296 295 295 295 294 294 293 292 291 290 290 290 290 290 290 289 289 288 287 286 285 284 283 283 282 281 280 280 279 278 278 278 277 277 276 276 276
297 298 300 303 303 302 302 306 309 311 311 311 312 312 312 311 310 309 310 311 312 313 314 313 312 310 309 308 308 308 308 307 306 304 304 304 303 303 303 302 302 301 300 300 299 298 298 297 297 296 296 295 295 295 294 293 293 293 292 292 291 291 291 290 289 288 287 286 285 284 283 283 282 281 280 279 279 278 278 278 277 277 276 276 276 275
295 298 301 304 304 303 304 307 309 310 311 310 310 310 309 308 307 308 309 310 311 312 312 311 310 309 308 307 308 308 308 307 306 305 304 304 303 303 303 302 302 301 301 300 300 299 298 297 297 296 296 296 296 295 295 295 295 294 294 293 293 292 291 290 289 288 287 285 284 283 283 282 282 281 280 279 279 278 278 277 277 276 275 275 275 274
294 297 300 302 302 303 305 307 309 311 311 311 309 307 306 306 306 307 308 309 310 310 310 309 308 308 307 307 308 308 308 307 306 306 305 305 304 304 303 303 302 301 300 300 299 299 298 297 297 296 296 296 296 296 296 295 295 295 294 293 293 292 291 291 289 288 286 285 284 283 282 282 281 281 280 279 279 278 277 277 276 276 275 275 274 273
293 296 300 301 301 302 305 307 309 311 311 310 308 307 306 305 306 307 308 309 310 309 309 308 308 307 307 308 308 309 309 309 308 308 307 306 305 305 303 302 301 300 299 299 298 298 297 297 297 297 297 297 297 296 296 296 295 295 294 293 293 292 291 290 289 288 286 285 284 283 282 282 281 280 280 279 278 278 277 277 276 275 275 274 273 273
291 295 299 301 303 304 304 305 307 309 310 308 307 306 307 307 307 307 308 309 309 310 310 310 309 308 308 309 310 310 310 310 309 309 308 307 306 305 303 302 300 299 298 298 297 297 297 297 297 297 297 297 297 297 296 296 295 295 294 294 293 292 291 290 289 288 287 286 285 284 283 282 281 280 280 279 278 277 277 276 276 275 274 274 273 273
288 294 299 301 302 304 305 305 306 308 308 307 305 304 305 307 309 309 310 310 310 310 311 311 310 309 308 309 310 311 310 308 307 306 306 305 304 303 302 301 299 298 297 296 296 296 296 296 297 297 297 297 297 296 296 296 295 295 294 294 293 292 292 291 290 288 287 286 285 284 283 282 281 281 280 279 278 277 276 276 275 275 275 274 273 273
287 292 297 299 300 300 303 305 306 307 308 305 303 302 304 307 311 313 313 312 311 311 311 310 309 308 309 309 310 310 309 306 304 303 302 301 300 299 299 298 296 295 295 295 295 295 295 296 296 296 296 296 296 295 295 295 295 295 294 293 293 292 291 291 290 289 288 287 285 284 283 282 281 280 279 279 278 277 276 276 275 275 275 274 274 274
288 292 296 298 300 300 301 303 305 306 307 306 304 304 305 308 313 315 314 313 312 312 311 309 308 307 308 309 309 309 308 306 304 303 302 302 301 300 298 296 295 294 294 294 295 295 295 295 295 295 296 295 295 295 295 295 294 294 294 293 293 292 291 290 289 288 287 286 285 284 283 282 282 281 280 279 278 277 277 276 276 275 275 274 274 274
289 294 296 298 301 303 304 304 305 305 307 308 309 309 309 311 313 314 311 310 310 311 311 309 307 306 306 306 307 307 306 305 304 304 304 304 304 303 301 299 298 296 296 295 295 295 294 295 295 295 295 294 294 294 294 294 294 294 293 293 292 291 291 290 289 288 287 286 285 284 284 283 283 282 281 280 279 278 277 277 276 276 275 274 274 274
288 292 295 299 302 304 305 306 306 307 309 311 312 312 311 312 312 311 307 305 306 307 308 308 307 306 305 305 305 305 305 304 303 303 303 304 304 304 303 301 299 298 298 297 296 295 295 295 295 294 294 294 294 294 294 294 294 293 293 292 292 292 291 290 289 288 287 286 286 285 285 284 284 283 282 281 280 279 278 277 277 276 275 274 274 274
291 295 298 301 302 303 304 304 305 307 310 311 311 309 309 310 311 310 307 304 304 305 306 305 305 305 306 305 305 304 304 303 303 302 302 301 302 302 302 301 299 298 298 297 295 295 295 295 294 293 294 294 295 295 296 296 295 294 293 293 292 292 291 291 290 289 288 288 287 286 286 285 285 284 283 282 281 280 279 278 277 276 275 275 274 274
295 299 301 301 301 301 302 304 305 307 308 308 308 308 308 308 309 308 306 305 305 306 306 305 304 304 305 305 306 306 305 302 302 303 302 301 301 302 302 301 299 298 297 295 294 294 294 293 293 293 294 295 296 296 297 296 294 293 293 292 292 292 291 291 290 290 289 288 288 287 286 286 285 284 283 282 282 280 279 279 278 277 276 275 274 274
297 300 300 298 298 298 301 304 306 307 306 306 306 307 307 307 307 306 305 303 304 304 304 305 306 306 306 306 308 308 307 305 304 304 303 302 301 302 302 300 299 297 296 294 293 293 293 293 293 293 294 294 295 296 295 294 292 292 292 292 292 292 292 292 291 291 290 289 288 288 287 286 286 285 284 283 283 282 280 279 279 278 277 276 275 274
299 298 297 295 295 298 302 305 305 304 304 304 304 304 304 304 304 303 301 299 299 299 298 300 302 305 307 308 308 308 309 309 307 305 303 301 300 301 301 299 297 295 294 293 292 292 292 293 292 292 293 294 295 295 294 293 292 292 292 292 292 292 292 292 291 291 290 290 289 288 288 287 286 286 285 284 283 282 281 281 280 279 278 277 276 275
299 297 296 295 297 300 303 303 302 301 302 302 303 304 303 301 300 298 295 292 291 291 291 291 292 296 301 304 305 306 308 309 308 305 302 299 299 300 301 298 295 293 292 291 291 291 291 291 291 291 292 293 293 293 293 292 292 292 292 293 293 292 292 292 292 291 291 290 290 289 288 288 287 286 286 285 284 283 282 281 281 280 279 278 277 276
298 296 296 297 298 299 299 299 299 299 300 302 304 304 303 299 297 294 289 287 285 284 286 288 289 290 294 296 299 303 306 307 306 303 300 298 298 300 301 298 295 292 291 290 290 291 291 291 291 291 292 292 292 292 293 292 293 293 292 293 293 292 292 292 292 291 291 290 290 289 289 288 287 287 286 286 285 284 283 283 282 281 280 279 278 277
296 295 294 296 296 296 295 294 294 296 299 302 302 301 298 296 294 291 287 285 284 283 284 285 288 291 294 296 298 301 304 305 304 301 298 297 297 299 299 298 294 292 290 289 290 291 291 291 291 292 292 292 292 292 292 292 292 292 292 292 292 292 292 291 291 291 291 290 290 289 289 288 288 287 287 286 285 285 284 283 283 282 280 279 278 277
294 293 292 292 292 291 291 292 293 296 299 301 299 295 292 291 289 287 287 287 288 288 288 287 290 294 298 298 298 299 301 302 300 298 297 296 296 297 298 296 294 292 290 290 291 292 292 291 291 291 291 292 292 292 291 291 291 291 291 291 291 291 291 291 291 291 290 290 289 289 289 288 288 287 287 286 285 285 284 283 283 282 281 280 279 278
290 289 290 289 287 287 290 293 296 298 299 297 292 286 284 283 285 287 291 294 296 297 297 296 296 296 296 295 294 294 296 296 295 295 296 295 294 295 297 297 295 292 290 291 292 293 293 292 291 291 291 291 290 290 290 290 290 290 291 291 291 291 290 290 290 290 289 289 289 289 288 288 287 287 286 286 285 285 284 284 283 282 282 281 280 279
290 289 291 293 293 293 295 297 299 299 298 293 287 282 283 283 286 291 298 302 303 302 299 297 296 294 293 291 291 292 293 293 293 293 293 291 292 295 298 299 297 293 291 292 294 295 295 293 292 291 290 290 289 289 289 289 290 290 290 290 290 290 290 290 289 289 289 289 289 288 288 288 287 287 287 287 286 286 286 285 284 284 282 282 281 280
298 299 300 300 300 301 300 299 299 300 300 300 299 299 300 300 302 305 306 304 302 299 297 296 295 294 293 292 292 292 293 294 294 293 290 288 290 293 297 298 297 294 292 293 295 296 295 294 292 291 291 290 289 288 288 288 289 289 289 289 289 289 289 289 289 289 289 289 289 289 289 288 288 288 288 288 288 287 287 286 285 284 283 282 281 280
300 300 299 299 300 300 300 299 301 304 307 310 312 313 312 310 307 303 301 299 297 297 297 296 295 294 295 296 295 294 295 296 296 293 287 287 289 292 295 297 296 295 294 295 297 297 296 295 293 292 291 290 289 288 287 287 287 288 288 288 288 289 289 289 289 289 289 289 289 289 289 289 289 289 289 288 288 287 287 286 285 284 283 282 281 280
297 296 297 298 298 299 300 302 303 305 306 308 308 306 305 304 302 300 298 297 297 298 299 297 295 294 296 297 296 295 296 298 297 293 287 288 290 292 294 296 296 295 295 297 298 298 297 295 295 294 292 290 289 288 287 286 286 286 287 288 288 289 289 289 289 289 289 289 289 289 289 289 289 289 288 288 287 287 286 286 285 285 284 284 283 282
296 295 296 298 300 301 302 303 303 302 302 301 300 300 301 301 300 298 295 295 298 301 300 298 296 296 297 297 295 295 297 298 297 293 289 287 288 290 293 296 297 297 297 298 299 298 297 295 294 293 292 290 289 288 287 287 286 286 287 288 288 289 289 289 289 290 290 290 290 289 289 289 289 288 288 288 287 287 287 287 286 286 286 285 285 284
295 295 295 296 298 300 301 301 301 300 300 299 298 298 298 298 297 294 292 295 300 302 298 294 293 295 296 295 294 295 297 296 294 292 290 286 283 285 290 296 298 299 299 299 299 299 297 294 292 292 291 291 291 291 290 289 288 287 288 288 289 289 289 289 289 290 290 290 290 290 290 289 289 289 288 288 288 288 288 288 288 288 287 287 286 284
293 293 293 295 298 300 302 302 302 302 302 302 301 300 298 295 292 290 291 296 299 298 292 289 288 289 291 293 295 296 296 294 294 295 295 290 285 286 292 297 299 300 301 302 302 302 299 295 293 292 292 293 294 293 293 292 291 290 289 289 289 289 289 290 290 290 291 291 291 291 290 290 289 289 289 289 289 289 288 288 288 288 288 287 285 283
299 299 300 301 303 305 307 308 308 308 308 309 306 302 298 293 290 289 290 292 291 288 286 285 285 286 289 294 297 297 295 295 297 301 304 298 292 291 295 298 298 299 302 304 305 304 302 301 299 297 297 297 296 296 295 294 293 292 291 290 290 289 289 290 290 290 291 291 291 291 290 290 290 290 289 289 289 289 288 288 288 288 287 286 284 283
309 309 309 309 309 310 312 313 313 314 315 316 312 307 303 298 293 291 289 287 283 280 279 281 283 285 288 292 295 295 293 294 297 302 305 299 293 291 295 296 296 297 299 300 301 304 304 305 304 303 302 300 298 297 296 295 294 293 292 291 290 290 290 290 291 291 291 291 291 291 290 290 290 290 289 289 289 288 288 288 288 287 287 285 284 282
312 311 311 311 312 313 315 317 318 319 319 318 316 313 309 303 298 293 289 284 280 277 277 279 282 284 285 285 283 281 284 289 293 297 299 294 290 290 293 293 294 295 296 293 289 287 296 300 303 303 303 301 299 297 296 295 294 293 292 291 290 289 290 290 291 291 291 291 291 291 290 290 289 289 289 288 288 288 287 287 287 286 285 284 283 281
310 310 310 311 313 316 319 321 323 322 320 319 317 314 310 305 300 295 290 286 283 280 279 280 282 284 284 282 280 279 280 284 288 293 295 291 289 290 292 292 293 294 296 294 289 285 284 287 295 299 301 300 299 297 296 295 294 293 292 290 289 289 290 290 290 290 290 290 290 290 290 289 289 288 288 287 287 286 286 286 285 284 283 282 280 279
309 309 311 314 317 321 324 325 325 322 319 317 314 310 307 303 300 296 292 289 286 283 280 278 279 281 282 282 282 281 281 283 287 291 292 290 288 289 291 292 292 294 296 295 292 289 286 287 290 295 298 299 298 297 296 295 294 293 291 290 289 289 289 290 290 289 288 289 288 288 288 288 288 288 287 287 286 285 284 284 284 283 280 278 277 276
309 311 315 320 323 325 325 325 323 320 317 314 311 308 306 304 301 298 295 292 289 285 282 279 277 276 276 278 280 282 282 284 287 290 291 288 287 288 290 290 291 292 293 293 292 291 290 289 290 292 295 297 298 297 296 295 295 294 292 291 289 289 289 289 288 288 287 287 287 286 286 286 287 287 287 286 285 285 284 285 284 283 280 278 276 275
315 318 321 324 325 323 322 320 319 317 315 313 312 310 308 306 303 300 297 294 291 288 284 281 278 275 273 273 273 276 279 283 287 289 288 286 284 285 286 287 288 288 288 288 288 288 288 289 290 291 293 294 296 297 298 298 297 296 295 293 291 290 289 289 288 287 286 285 284 283 283 284 284 284 285 285 285 284 285 285 284 283 281 279 278 276
321 321 322 322 322 320 318 318 318 317 316 315 313 311 309 307 304 301 299 296 294 291 288 285 281 277 274 272 272 273 276 280 284 285 284 283 281 281 280 282 284 284 282 282 283 285 286 287 290 291 291 290 291 294 298 300 300 298 296 295 294 292 290 289 287 286 284 283 282 281 281 282 282 282 283 283 284 285 284 283 282 281 280 279 278 276
321 318 318 319 319 319 318 317 317 316 315 314 312 310 308 306 304 302 300 298 296 294 291 289 286 283 281 277 275 276 277 280 282 283 283 282 280 277 276 277 279 279 277 276 277 280 282 284 287 289 290 289 289 291 294 297 298 298 296 296 295 293 290 289 287 285 283 282 281 281 281 281 281 281 281 281 282 282 282 281 281 281 279 279 278 277
317 315 316 317 318 317 316 315 314 313 312 311 309 307 306 305 303 302 301 299 297 295 293 292 290 288 287 285 283 281 280 280 282 283 284 283 280 277 274 274 276 277 276 275 274 274 276 277 279 281 285 288 290 291 293 294 294 295 296 297 296 294 291 290 289 287 285 283 282 282 282 281 280 279 279 279 279 278 278 279 279 279 279 277 278 278
316 314 314 314 314 313 312 310 310 310 310 309 308 308 307 306 304 303 302 301 299 297 296 295 293 292 290 288 287 285 284 283 284 285 284 283 282 278 275 273 273 275 276 276 274 273 273 274 276 278 280 282 286 290 292 292 292 293 295 296 295 294 293 292 291 289 287 284 281 280 280 280 280 278 277 277 276 275 274 275 277 277 276 275 274 275
313 312 311 311 311 311 310 310 309 309 308 308 307 307 306 305 305 305 304 304 303 302 301 300 299 297 296 293 291 289 287 287 287 286 286 285 284 282 278 274 273 273 274 274 274 272 271 272 274 276 278 279 282 285 287 289 289 291 292 291 290 290 292 292 291 288 286 283 281 280 279 280 280 279 277 276 274 273 273 273 273 274 274 272 270 268
311 309 309 310 310 310 310 310 310 309 308 307 306 305 305 304 305 305 305 304 305 305 305 304 304 303 302 300 298 296 293 292 291 291 290 290 288 286 282 278 276 274 273 273 273 273 271 270 271 274 276 278 280 282 285 286 288 288 288 286 287 289 292 291 290 288 286 284 283 282 280 280 279 278 277 276 275 275 274 273 272 272 271 270 268 265
307 306 307 309 310 310 310 310 309 309 308 307 305 304 304 304 304 304 303 302 302 304 304 304 304 304 303 303 303 303 302 300 299 297 295 293 291 289 286 283 280 276 273 271 271 273 273 272 271 271 273 276 277 278 281 285 287 287 286 285 286 288 290 290 291 291 289 286 285 283 282 280 279 278 278 277 276 276 275 274 273 272 269 267 266 265
306 306 308 309 310 310 310 309 308 308 307 305 303 303 303 303 303 302 301 299 300 302 303 304 304 303 302 303 304 306 308 307 305 302 298 296 294 291 289 285 282 278 274 269 268 271 274 275 275 275 275 275 275 276 279 282 284 285 285 285 283 281 280 283 287 290 289 287 285 283 282 280 280 280 279 278 277 275 274 273 272 271 269 268 266 264
307 308 308 309 310 310 309 307 307 307 306 303 302 302 303 303 303 301 298 299 300 301 302 302 303 303 302 303 305 308 310 310 309 306 304 302 299 295 291 287 283 280 276 271 267 267 269 272 276 278 279 277 275 274 275 278 280 282 283 284 283 280 278 280 282 284 285 285 284 284 282 281 281 280 279 278 277 276 274 272 271 270 269 268 266 264
308 307 308 308 309 308 307 307 307 306 305 303 302 303 303 303 302 301 299 297 298 299 300 301 299 298 298 301 304 307 308 309 310 309 308 307 305 301 297 292 287 283 278 274 271 268 266 267 271 276 279 279 277 276 275 275 276 279 281 282 282 282 282 282 282 282 281 282 282 282 282 282 281 279 277 277 277 277 275 273 271 269 269 268 266 265
308 307 308 308 308 307 306 307 307 307 305 304 303 303 303 303 302 302 301 299 298 298 299 300 298 294 293 295 299 302 303 305 306 308 309 309 308 306 303 299 294 288 283 279 276 273 270 268 268 269 271 274 277 278 277 276 276 276 278 280 282 282 282 282 282 282 281 280 280 280 281 281 280 278 277 277 277 277 276 275 273 271 269 268 267 266
308 308 307 307 307 307 307 308 308 307 305 304 304 304 304 304 303 302 302 301 300 300 300 300 297 295 294 294 295 297 298 299 300 302 305 306 307 307 306 304 301 297 292 287 282 279 275 273 270 268 266 267 270 274 276 277 276 275 276 278 279 279 279 280 282 283 282 280 278 278 279 278 277 276 277 277 278 277 277 276 275 273 271 269 268 266
307 307 307 306 306 306 307 308 308 306 305 305 304 305 305 306 305 303 301 301 301 299 299 297 296 296 295 296 296 297 297 297 297 298 301 303 305 306 306 306 305 303 300 296 292 287 283 280 276 271 266 262 262 266 271 273 275 275 276 276 276 276 277 279 280 282 282 280 279 278 277 275 273 273 274 275 276 277 278 278 277 276 273 271 269 268
307 306 306 306 305 305 305 306 306 305 304 304 304 305 306 306 306 304 303 302 301 298 296 295 294 294 295 295 296 297 297 297 297 297 298 301 303 304 304 305 305 305 304 302 300 297 294 291 286 281 274 265 260 260 264 269 272 275 275 274 274 274 275 276 278 280 280 279 279 278 276 274 272 271 270 270 272 275 277 278 278 277 276 274 271 269
307 307 306 306 305 305 305 305 304 304 303 303 303 303 304 305 306 306 306 304 302 299 296 295 293 292 293 293 294 295 296 295 295 295 297 300 302 302 301 302 302 302 302 302 303 302 301 299 295 293 290 283 273 265 263 265 269 273 274 274 274 275 275 276 278 279 279 279 278 277 276 274 272 270 268 268 271 275 278 278 278 278 278 276 274 271